Weather History for Hagerstown, MD

Change the Weather History Date:

Sunday, December 22, 2013

  Actual Average Record
Temperature  
Mean Temperature 65 °F -  
Max Temperature 69 °F 37 °F 69 °F (2013)
Min Temperature 61 °F 24 °F 7 °F (2000)
Growing Degree Days 14 (Base 50)    
Moisture  
Dew Point 57 °F    
Average Humidity 80    
Maximum Humidity 93    
Minimum Humidity 67    
Precipitation  
Precipitation 0.09 in - - ()
Month to date precipitation 2.73  
Year to date precipitation 32.66  
Sea Level Pressure  
Sea Level Pressure 29.90 in    
Wind  
Wind Speed 17 mph (South)    
Max Wind Speed 25 mph    
Max Gust Speed 32 mph    
Visibility 10 miles    
Events Rain    
Averages and records for this station are not official NWS values.
T = Trace of Precipitation, MM = Missing Value Source: NWS Daily Summary

Daily Weather History Graph

Daily Weather History Graph

Search for Another Location

Airport:

Trip Planner

Search our weather history database for the weather conditions in past years. The results will help you decide how hot, cold, wet, or windy it might be!

Date:

Astronomy

Dec. 22, 2013 Rise Set
Actual Time 7:28 AM EST 4:50 PM EST
Civil Twilight 6:58 AM EST 5:20 PM EST
Nautical Twilight 6:24 AM EST 5:54 PM EST
Astronomical Twilight 5:51 AM EST 6:27 PM EST
Moon 10:00 PM EST (12/22) 10:24 AM EST (12/22)
Length of Visible Light 10h 22m
Length of Day
9h 21m
Waning Gibbous, 77% of the Moon is Illuminated
Dec 22
Waning Gibbous
Dec 25
Last Quarter
Jan 1
New
Jan 7
First Quarter
Jan 15
Full

Hourly Weather History & Observations

Time (EST) Temp. Dew Point Humidity Pressure Visibility Wind Dir Wind Speed Gust Speed Precip Events Conditions
12:53 AM 63.0 °F 57.0 °F 81% 29.85 in 10.0 mi SSE 11.5 mph - 0.01 in Rain Light Rain
1:53 AM 63.0 °F 57.9 °F 84% 29.81 in 10.0 mi SSE 18.4 mph 27.6 mph 0.00 in   Clear
2:53 AM 64.9 °F 59.0 °F 81% 29.80 in 10.0 mi SSE 20.7 mph 25.3 mph N/A   Clear
3:53 AM 66.0 °F 60.1 °F 81% 29.78 in 10.0 mi South 20.7 mph 26.5 mph N/A   Clear
4:53 AM 66.9 °F 60.1 °F 79% 29.78 in 10.0 mi South 18.4 mph 28.8 mph N/A   Clear
5:53 AM 68.0 °F 60.1 °F 76% 29.81 in 10.0 mi South 19.6 mph 28.8 mph N/A   Overcast
6:23 AM 66.0 °F 60.1 °F 81% 29.86 in 9.0 mi WSW 11.5 mph 26.5 mph 0.01 in Rain Light Rain
6:38 AM 64.0 °F 59.0 °F 84% 29.88 in 7.0 mi WSW 6.9 mph - 0.03 in Rain Light Rain
6:53 AM 64.0 °F 59.0 °F 84% 29.90 in 10.0 mi SSW 4.6 mph - 0.03 in Rain Light Rain
7:53 AM 64.0 °F 57.9 °F 80% 29.93 in 10.0 mi SW 5.8 mph - 0.00 in   Overcast
8:53 AM 63.0 °F 57.0 °F 81% 29.97 in 6.0 mi SSW 8.1 mph - 0.01 in Rain Light Rain
9:53 AM 62.1 °F 60.1 °F 93% 29.98 in 10.0 mi South 9.2 mph - 0.04 in Rain Light Rain
10:53 AM 62.1 °F 60.1 °F 93% 29.97 in 10.0 mi South 11.5 mph - 0.00 in   Overcast
11:53 AM 62.1 °F 59.0 °F 90% 29.92 in 10.0 mi South 13.8 mph - N/A   Mostly Cloudy
12:53 PM 63.0 °F 57.0 °F 81% 29.84 in 10.0 mi South 21.9 mph 32.2 mph N/A   Scattered Clouds
1:53 PM 64.9 °F 54.0 °F 68% 29.82 in 10.0 mi South 20.7 mph 31.1 mph 0.00 in   Overcast
2:53 PM 64.0 °F 55.0 °F 73% 29.88 in 10.0 mi SSW 12.7 mph 19.6 mph 0.00 in   Mostly Cloudy
3:53 PM 64.0 °F 54.0 °F 70% 29.89 in 10.0 mi South 13.8 mph 23.0 mph 0.00 in   Partly Cloudy
4:53 PM 64.0 °F 54.0 °F 70% 29.91 in 10.0 mi South 13.8 mph - N/A   Clear
5:53 PM 63.0 °F 54.0 °F 72% 29.92 in 10.0 mi SSW 10.4 mph - N/A   Clear
6:53 PM 62.1 °F 54.0 °F 75% 29.93 in 10.0 mi SSW 8.1 mph - N/A   Clear
7:53 PM 61.0 °F 54.0 °F 78% 29.96 in 10.0 mi SSW 6.9 mph - N/A   Clear
8:53 PM 59.0 °F 54.0 °F 83% 29.96 in 10.0 mi South 5.8 mph - N/A   Clear
9:53 PM 59.0 °F 54.0 °F 83% 29.97 in 10.0 mi South 8.1 mph - N/A   Partly Cloudy
10:53 PM 59.0 °F 54.0 °F 83% 29.96 in 10.0 mi South 9.2 mph - N/A   Overcast
11:53 PM 60.1 °F 55.0 °F 83% 29.99 in 10.0 mi South 10.4 mph - N/A   Overcast